Regional Weather Roundup
Issued by NWS

Home | Current Version | Previous Version | Text Only | Print | Product List | Glossary On
Versions: 1 2 3 4 5 6 7 8 9 10 11 12 13 14 15 16 17 18 19 20 21 22 23 24 25 26 27 28 29 30 31 32 33 34 35 36 37 38 39 40 41 42 43 44 45 46 47 48 49 50
599
ASUS43 KMKX 221120
RWRWI

WISCONSIN REGIONAL WEATHER ROUNDUP
NATIONAL WEATHER SERVICE MILWAUKEE/SULLIVAN WI
500 AM CST WED NOV 22 2017

NOTE: "FAIR" INDICATES FEW OR NO CLOUDS BELOW 12,000 FEET WITH NO
SIGNIFICANT WEATHER AND/OR OBSTRUCTIONS TO VISIBILITY.

WIZ001-002-006>008-014>016-023>028-221200-
NORTHWEST WISCONSIN

CITY           SKY/WX    TMP DP  RH WIND       PRES   REMARKS
SUPERIOR ARPT  CLOUDY    14  10  83 W3        30.29S
ASHLAND        CLOUDY    18  11  74 SW6       30.27F WCI  10
HAYWARD        CLOUDY    15   9  76 SW5       30.26F WCI   8
SIREN          CLOUDY    11   8  88 CALM      30.30S
CUMBERLAND     CLOUDY    12   9  85 CALM      30.28S
RICE LAKE      CLOUDY    13  10  86 CALM      30.31F
CHETEK         CLOUDY    10   8  89 CALM      30.31F
LADYSMITH      CLOUDY    14  10  84 CALM      30.29F
EAU CLAIRE     CLOUDY    10   5  80 CALM      30.32F
MENOMONIE      CLOUDY    14   9  82 CALM      30.32F
NEW RICHMOND   CLOUDY    12   9  87 SW3       30.31F
OSCEOLA        CLOUDY    13  10  85 SW3       30.34F
$$

WIZ003>005-009-010-017-018-221200-
NORTH CENTRAL WISCONSIN

CITY           SKY/WX    TMP DP  RH WIND       PRES   REMARKS
MANITOWISH WTR FLURRIES  16  12  84 W5        30.20F WCI   9
ARBOR VITAE    FLURRIES  19  14  79 W5        30.20F WCI  12
WOODRUFF       FLURRIES  19  14  79 W5        30.20F WCI  12
RHINELANDER    CLOUDY    18  12  77 NW3       30.21S
EAGLE RIVER    CLOUDY    18  12  78 W5        30.19S WCI  11
LAND O LAKES   FLURRIES  18  14  85 W3        30.19F
PHILLIPS       CLOUDY    13   9  84 CALM      30.23F
TOMAHAWK       CLOUDY    14   9  79 CALM      30.25S
MEDFORD        CLOUDY    16   9  71 N5        30.26R WCI   9
MERRILL        CLOUDY    16   9  76 W5        30.26F WCI   8
$$

WIZ029-030-035-036-043>047-221200-
CENTRAL WISCONSIN

CITY           SKY/WX    TMP DP  RH WIND       PRES   REMARKS
WAUSAU         CLOUDY    17  10  74 NW5       30.25F WCI  10
MOSINEE        CLOUDY    18  12  79 NW5       30.28S WCI  11
MARSHFIELD     CLOUDY    16   8  71 NW5       30.27R WCI   9
STEVENS POINT  CLOUDY    17   9  70 NW3       30.30R
WAUPACA        CLOUDY    20  13  73 W5        30.31R WCI  14
WAUTOMA        CLEAR     15  10  80 CALM      30.32R
WISC RAPIDS    CLOUDY    15   8  73 N6        30.31S WCI   6
CAMP DOUGLAS   CLOUDY    11   7  85 NW6       30.32R WCI   1
$$

WIZ011>013-019>022-031-037>040-048>050-221200-
NORTHEAST WISCONSIN

CITY           SKY/WX    TMP DP  RH WIND       PRES   REMARKS
ANTIGO         CLOUDY    17  11  79 W7        30.22F WCI   7
SHAWANO        CLOUDY    25  14  65 W5        30.29R WCI  19
OCONTO         CLOUDY    25  12  59 NW6       30.29R WCI  18
STURGEON BAY   FLURRIES  25  13  60 NW12      30.27R WCI  14
GREEN BAY      CLOUDY    24  17  74 NW8       30.29R WCI  15
MANITOWOC      CLOUDY    24  15  68 W7        30.30R WCI  16
APPLETON       CLOUDY    21  12  68 W7        30.27S WCI  13
CLINTONVILLE   CLOUDY    23  12  63 NW5       30.30R WCI  17
OSHKOSH        CLEAR     17  11  77 W6        30.29R WCI   9
$$

WIZ032>034-041-042-053>061-221200-
SOUTHWEST WISCONSIN

CITY           SKY/WX    TMP DP  RH WIND       PRES   REMARKS
LA CROSSE      PTCLDY    18  11  74 N5        30.35R WCI  11
SPARTA         CLOUDY    14  10  83 CALM      30.34R
VIROQUA        PTCLDY    16  13  86 N3        30.29F
BOSCOBEL       CLOUDY    16  11  80 CALM      30.37R
PRAIRIE DU CHI PTCLDY    20  11  69 CALM      30.36R
PLATTEVILLE    CLOUDY    19  15  85 W5        30.33R WCI  12
$$

WIZ056-057-062-063-064-067-068-221200-
SOUTH CENTRAL WISCONSIN

CITY           SKY/WX    TMP DP  RH WIND       PRES   REMARKS
REEDSBURG      CLEAR     17  10  74 CALM      30.32R
BARABOO/DELLS  CLEAR     17  11  76 CALM      30.31R
LONE ROCK      CLEAR     16  11  80 CALM      30.34R
MINERAL POINT  CLOUDY    19  16  86 CALM      30.30S
MADISON        CLEAR     18  11  74 N7        30.31R WCI   9
MIDDLETON      CLEAR     19  14  80 NW3       30.32R
WATERTOWN      CLEAR     18  13  81 CALM      30.31R
MONROE         CLOUDY    19  14  79 W6        30.30S WCI  11
JANESVILLE     CLEAR     19  14  79 CALM      30.32R
$$

WIZ051-052-058>065-066-070>072-221200-
SOUTHEAST WISCONSIN

CITY           SKY/WX    TMP DP  RH WIND       PRES   REMARKS
MILWAUKEE      CLEAR     22  14  71 NW6       30.31R WCI  14
WAUKESHA       CLEAR     18  12  79 NW3       30.31R
MILWAUKEE/TIMM CLEAR     19  10  68 NW5       30.31R WCI  13
RACINE         CLEAR     20  14  77 W6        30.32R WCI  12
BURLINGTON     CLEAR     20  18  89 CALM      30.31R
KENOSHA        CLEAR     20  13  74 W6        30.31R WCI  12
FOND DU LAC    CLEAR     18  10  71 NW6       30.30R WCI  10
SHEBOYGAN      MOCLDY    20  14  77 NW5       30.29R WCI  13
WEST BEND      CLEAR     18  12  79 NW5       30.29R WCI  11
JUNEAU         CLEAR     18  12  79 NW5       30.31R WCI  11
$$

LSZ147-162-221200-
LAKE SUPERIOR

STATION/POSITION TIME  TEMP    WIND        PRES    WAVE
                       AIR SEA DIR/SP/G            HT/PER
                 (UTC) (F)     (DEG/KT/KT) (MB)    (FT/S)
DEVILS ISLAND    1100   21     240/ 12/ 14 1025.7F
SAXON HARBOR     1040   20     230/  5/ 10 1024.7S
$$

LMZ867-665-643>646-221200-
LAKE MICHIGAN

STATION/POSITION TIME  TEMP    WIND        PRES    WAVE
                       AIR SEA DIR/SP/G            HT/PER
                 (UTC) (F)     (DEG/KT/KT) (MB)    (FT/S)
N MID LAKE BUOY  1050   28 47  310/ 16/ 19 1024.8R   4/ 4
NORTHPORT PIER   1050   28     320/ 17/ 21 1024.0R
KEWAUNEE LAKESHO 1100   26     320/  6/  9 1024.5
SHEBOYGAN LAKESH 1100   23     290/  8/  9 1026.9R
PORT WASHINGTON  1030   21     290/  4/  7 1027.1R
MILWAUKEE LAKESH 1100   23     320/  6/  8   N/A
S MID LAKE BUOY  1050   31 47  360/ 10/ 16 1025.8R   4/ 7
KENOSHA   LAKESH 1100   22     290/  7/ 10 1026.4
$$

TC  - TEMPERATURE IN CELSIUS
VSB - VISIBILITY IN STATUTE MILES
WCI - WIND CHILL INDEX
HX  - HEAT INDEX





USA.gov is the U.S. government's official web portal to all federal, state and local government web resources and services.